Regional Weather Roundup
Issued by NWS Sterling, VA

Home | Current Version | Previous Version | Graphics & Text | Print | Product List | Glossary On
Versions: 1 2 3 4 5 6 7 8 9 10 11 12 13 14 15 16 17 18 19 20 21 22 23 24 25 26 27 28 29 30 31 32 33 34 35 36 37 38 39 40 41 42 43 44 45 46 47 48 49 50
000
ASUS41 KLWX 031710
RWRLWX

REGIONAL WEATHER ROUNDUP
NATIONAL WEATHER SERVICE BALTIMORE MD/WASHINGTON DC
100 PM EDT FRI JUL 03 2015

Note: "FAIR" indicates few or no clouds below 12,000 feet
with no significant weather and/or obstructions to visibility.
 TC=TEMPERATURE CELSIUS

 * =Non NWS site. Station does not report precipitation (e.g. rain,
    snow, etc.), thunder, or fog.

DCZ001-MDZ009-015-VAZ040>042-051-053>054-031800-
WASHINGTON METRO

CITY           SKY/WX    TMP DP  RH WIND       PRES   REMARKS
WASHINGTON NAT PTSUNNY   81  64  56 S7        30.00S
DULLES         PTSUNNY   77  62  59 SE9       29.99F
ANDREWS AFB    PTSUNNY   78  71  79 SE6       29.99F
FT BELVOIR     PTSUNNY   76  64  64 S6        30.00S
QUANTICO       PTSUNNY   77  64  64 SW6       30.00F
COLLEGE PARK*  PTSUNNY   79  61  53 SE7       29.99S
LEESBURG*      MOSUNNY   81  64  57 S10       30.00F
MANASSAS*      MOSUNNY   79  63  57 S7          N/A
GAITHERSBURG*  PTSUNNY   79  63  57 S7        30.03S

$$

MDZ006>007-011-014-031800-
BALTIMORE METRO

CITY           SKY/WX    TMP DP  RH WIND       PRES   REMARKS
BWI AIRPORT    CLOUDY    78  64  61 S7        29.99S
MD SCIENCE CTR   N/A     79  65  62 MISG      29.99F
MARTIN STATE   PTSUNNY   79  72  78 SE6       30.01S HAZE
ANNAPOLIS      PTSUNNY   77  63  61 SE8       29.99S
FORT MEADE*    PTSUNNY   77  64  65 SW6       30.01F

$$

MDZ012-015-019>023-031800-
MARYLAND EASTERN SHORE

CITY           SKY/WX    TMP DP  RH WIND       PRES   REMARKS
OCEAN CITY     MOSUNNY   76  62  62 VRB3      30.01S
SALISBURY      MOSUNNY   79  63  57 S7        30.00S
BAY BRIDGE AP*   N/A     77  64  65 S6        30.00S
CAMBRIDGE*     PTSUNNY   79  59  50 SE6       29.99S
EASTON*        MOSUNNY   81  64  57 SW5       30.03S

$$

MDZ017>025-031800-
SOUTHERN MARYLAND

CITY           SKY/WX    TMP DP  RH WIND       PRES   REMARKS
PATUXENT RIVER MOSUNNY   78  64  61 SE9       29.99S
ST INIGOES     PTSUNNY   79  62  56 S8        29.99S
LEONARDTOWN*   PTSUNNY   77  59  53 SE8       30.01S

$$

MDZ003>005-031800-
NORTH CENTRAL MARYLAND

CITY           SKY/WX    TMP DP  RH WIND       PRES   REMARKS
FREDERICK*     NOT AVBL
HAGERSTOWN APT PTSUNNY   78  61  55 SE10      29.99F
WESTMINSTER*   PTSUNNY   82  63  51 SE7       30.00F

$$

MDZ501>502-031800-
WESTERN MARYLAND

CITY           SKY/WX    TMP DP  RH WIND       PRES   REMARKS
OAKLAND*       PTSUNNY   68 N/A N/A SE14G21   30.04S
CUMBERLAND*    PTSUNNY   77  63  61 E6        30.02F

$$

VAZ025>031-031800-
SHENANDOAH VALLEY

CITY           SKY/WX    TMP DP  RH WIND       PRES   REMARKS
WINCHESTER*    PTSUNNY   79  64  61 SE7       29.99F
FRONT ROYAL*   FAIR      77  64  65 SE7       29.98F
LURAY*         PTSUNNY   79  63  57 CALM      29.99S
NEW MARKET*    CLOUDY    75  62  64 S5        29.97F
STAUNTON*      RAIN      74  64  71 S6        30.03S
WAYNESBORO*    CLOUDY    67  62  85 SE3       30.03R

$$

WVZ021-048>050-054>055-031800-
EASTERN WEST VIRGINIA PANHANDLE

CITY           SKY/WX    TMP DP  RH WIND       PRES   REMARKS
MARTINSBURG    PTSUNNY   75  65  70 VRB3      30.00S
PETERSBURG*    CLOUDY    76  59  57 SE8       29.99S

$$

VAZ036>039-050-031800-
CENTRAL FOOTHILLS

CITY           SKY/WX    TMP DP  RH WIND       PRES   REMARKS
CHARLOTTESVILL CLOUDY    75  65  70 CALM      30.00F
CULPEPER*      CLOUDY    76  64  64 SE5       30.00F
ORANGE*        CLOUDY    79  64  61 NE5       30.01S
GORDONSVILLE*  CLOUDY    73  68  83 W3        29.99S
WARRENTON*     FAIR      78  67  67 SE3       29.99F

$$

VAZ055>057-031800-
NORTH AND CENTRAL PIEDMONT

CITY           SKY/WX    TMP DP  RH WIND       PRES   REMARKS
FREDERICKSBRG* CLOUDY    82  64  55 SE5       29.98F
STAFFORD*      CLOUDY    77  64  64 SE6       30.03F

$$

NCZ024-NYZ072-PAZ021-071-VAZ022-071-031800-
OTHER REGIONAL OBSERVATIONS

CITY           SKY/WX    TMP DP  RH WIND       PRES   REMARKS
NEW YORK CITY  SUNNY     79  49  34 CALM      30.01F
PHILADELPHIA   PTSUNNY   82  60  47 SE3       30.00S
PITTSBURGH     CLOUDY    76  57  51 SE6       29.95F
ROANOKE        CLOUDY    68  63  84 E7        30.02S
RICHMOND       PTSUNNY   81  66  60 CALM      29.98F
RALEIGH        PTSUNNY   78  71  79 SW8       29.97F

$$

ANZ530>537-031800-
MARINE OBSERVATIONS

STATION/POSITION TIME  TEMP    WIND        PRES
                       AIR SEA DIR/SP/G
                 (UTC) (F)     (DEG/KT/KT) (MB)
THOMAS PT LIGHT  NOT AVBL
BALT KEY BRIDGE  1600   73     110/  4/  5 1015.6F
COVE POINT       1600   74     190/  6/  8 1016.5R
LEWISETTA        1600   75 80  110/  8/  9 1015.5R
SOLOMONS ISLAND  1600      80                N/A
PINEY POINT      1600          150/  9/ 10   N/A

$$



USA.gov is the U.S. government's official web portal to all federal, state and local government web resources and services.